Bastrop, LA

2:47 PM CDT on May 26, 2017 (GMT -0500)
Bastrop

Weather History for KBQP - January, 2014

Change the Weather History Date:

Monday, January 20, 2014

  Actual Average (KMLU) Record (KMLU)
Temperature  
Mean Temperature 54 °F -  
Max Temperature 74 °F 52 °F 81 °F (2012)
Min Temperature 35 °F 34 °F 8 °F (1985)
Degree Days  
Heating Degree Days 10    
Growing Degree Days 4 (Base 50)    
Moisture  
Dew Point 34 °F    
Average Humidity 47    
Maximum Humidity 70    
Minimum Humidity 23    
Precipitation  
Precipitation 0.00 in - - ()
Sea Level Pressure  
Sea Level Pressure 29.99 in    
Wind  
Wind Speed 1 mph (SW)    
Max Wind Speed 13 mph    
Max Gust Speed 17 mph    
Visibility 10 miles    
Events      
Averages and records for this station are not official NWS values.
T = Trace of Precipitation, MM = Missing Value Source: NWS Daily Summary

Daily Weather History Graph

Daily Weather History Graph

Search for Another Location

Airport or City:

Trip Planner

Search our weather history database for the weather conditions in past years. The results will help you decide how hot, cold, wet, or windy it might be!

Date:

Astronomy

Jan. 20, 2014 Rise Set
Actual Time 7:08 AM CST 5:28 PM CST
Civil Twilight 6:42 AM CST 5:55 PM CST
Nautical Twilight 6:12 AM CST 6:25 PM CST
Astronomical Twilight 5:42 AM CST 6:54 PM CST
Moon 9:46 PM CST (1/20) 9:24 AM CST (1/20)
Length of Visible Light 11h 13m
Length of Day
10h 20m
Waning Gibbous, 82% of the Moon is Illuminated
Jan 20
Waning Gibbous
Jan 23
Last Quarter
Jan 30
New
Feb 6
First Quarter
Feb 14
Full

Hourly Weather History & Observations

Time (CST) Temp. Dew Point Humidity Pressure Visibility Wind Dir Wind Speed Gust Speed Precip Events Conditions
12:15 AM 36.7 °F 26.6 °F 67% 30.11 in 10.0 mi Calm Calm - N/A   Clear
12:35 AM 38.5 °F 26.8 °F 63% 30.10 in 10.0 mi Calm Calm - N/A   Clear
12:55 AM 38.7 °F 26.4 °F 61% 30.09 in 10.0 mi Calm Calm - N/A   Clear
1:15 AM 36.0 °F 26.6 °F 69% 30.09 in 10.0 mi Calm Calm - N/A   Clear
1:35 AM 36.3 °F 26.6 °F 68% 30.08 in 10.0 mi Calm Calm - N/A   Clear
1:55 AM 35.6 °F 26.2 °F 69% 30.07 in 10.0 mi Calm Calm - N/A   Clear
2:15 AM 36.7 °F 26.4 °F 66% 30.07 in 10.0 mi Calm Calm - N/A   Clear
2:35 AM 37.8 °F 26.6 °F 64% 30.07 in 10.0 mi Calm Calm - N/A   Clear
2:55 AM 40.8 °F 25.9 °F 55% 30.07 in 10.0 mi Calm Calm - N/A   Clear
3:15 AM 41.9 °F 25.5 °F 52% 30.06 in 10.0 mi Calm Calm - N/A   Clear
3:35 AM 42.1 °F 26.1 °F 53% 30.05 in 10.0 mi Calm Calm - N/A   Clear
3:55 AM 42.4 °F 26.1 °F 52% 30.05 in 10.0 mi Calm Calm - N/A   Clear
4:15 AM 43.0 °F 25.5 °F 50% 30.04 in 10.0 mi Calm Calm - N/A   Clear
4:35 AM 42.8 °F 25.5 °F 51% 30.04 in 10.0 mi Calm Calm - N/A   Clear
4:55 AM 42.8 °F 25.5 °F 51% 30.03 in 10.0 mi Calm Calm - N/A   Clear
5:15 AM 41.9 °F 25.5 °F 52% 30.03 in 10.0 mi Calm Calm - N/A   Clear
5:35 AM 41.7 °F 25.9 °F 53% 30.03 in 10.0 mi Calm Calm - N/A   Clear
5:55 AM 41.7 °F 26.1 °F 54% 30.04 in 10.0 mi Calm Calm - N/A   Clear
6:15 AM 40.3 °F 26.2 °F 57% 30.04 in 10.0 mi Calm Calm - N/A   Clear
6:35 AM 41.7 °F 26.4 °F 55% 30.04 in 10.0 mi Calm Calm - N/A   Clear
6:55 AM 40.3 °F 26.6 °F 58% 30.04 in 10.0 mi Calm Calm - N/A   Clear
7:15 AM 38.5 °F 26.8 °F 63% 30.04 in 10.0 mi Calm Calm - N/A   Clear
7:35 AM 37.6 °F 27.5 °F 67% 30.04 in 10.0 mi Calm Calm - N/A   Clear
7:55 AM 38.1 °F 28.8 °F 69% 30.05 in 10.0 mi Calm Calm - N/A   Clear
8:15 AM 42.3 °F 28.9 °F 59% 30.05 in 10.0 mi Calm Calm - N/A   Clear
8:35 AM 46.9 °F 30.0 °F 52% 30.05 in 10.0 mi Calm Calm - N/A   Clear
8:55 AM 50.0 °F 30.4 °F 47% 30.06 in 10.0 mi Calm Calm - N/A   Clear
9:15 AM 52.7 °F 30.2 °F 42% 30.06 in 10.0 mi SSW 6.9 mph - N/A   Clear
9:35 AM 54.7 °F 29.5 °F 38% 30.07 in 10.0 mi Calm Calm - N/A   Clear
9:55 AM 57.0 °F 29.1 °F 35% 30.08 in 10.0 mi SW 3.5 mph - N/A   Clear
10:15 AM 59.4 °F 29.1 °F 32% 30.07 in 10.0 mi Calm Calm - N/A   Clear
10:35 AM 61.3 °F 29.3 °F 30% 30.07 in 10.0 mi SW 6.9 mph - N/A   Clear
10:55 AM 62.2 °F 29.8 °F 29% 30.06 in 10.0 mi Calm Calm - N/A   Clear
11:15 AM 64.8 °F 29.8 °F 27% 30.05 in 10.0 mi Calm Calm - N/A   Clear
11:35 AM 65.8 °F 30.0 °F 26% 30.04 in 10.0 mi WSW 5.8 mph - N/A   Clear
11:55 AM 67.8 °F 30.2 °F 25% 30.02 in 10.0 mi Calm Calm - N/A   Clear
12:15 PM 68.4 °F 30.4 °F 24% 30.00 in 10.0 mi South 4.6 mph - N/A   Clear
12:35 PM 69.3 °F 30.9 °F 24% 29.98 in 10.0 mi South 6.9 mph - N/A   Clear
12:55 PM 70.5 °F 31.3 °F 23% 29.97 in 10.0 mi South 8.1 mph - N/A   Clear
1:15 PM 72.0 °F 32.0 °F 23% 29.95 in 10.0 mi SSW 8.1 mph - N/A   Clear
1:35 PM 72.5 °F 32.0 °F 23% 29.94 in 10.0 mi Calm Calm - N/A   Clear
1:55 PM 73.0 °F 32.7 °F 23% 29.93 in 10.0 mi South 8.1 mph - N/A   Clear
2:15 PM 73.2 °F 33.4 °F 23% 29.92 in 10.0 mi SW 3.5 mph - N/A   Clear
2:35 PM 73.4 °F 33.8 °F 23% 29.91 in 10.0 mi South 5.8 mph - N/A   Clear
2:55 PM 73.8 °F 34.0 °F 23% 29.90 in 10.0 mi SSW 3.5 mph - N/A   Clear
3:15 PM 74.1 °F 34.3 °F 23% 29.89 in 10.0 mi SW 8.1 mph - N/A   Clear
3:35 PM 73.9 °F 34.3 °F 24% 29.89 in 10.0 mi SW 12.7 mph 16.1 mph N/A   Clear
3:55 PM 73.4 °F 34.9 °F 24% 29.89 in 10.0 mi SSW 11.5 mph 17.3 mph N/A   Clear
4:15 PM 72.9 °F 36.0 °F 26% 29.89 in 10.0 mi SW 9.2 mph - N/A   Clear
4:35 PM 71.8 °F 37.4 °F 29% 29.89 in 10.0 mi SSW 4.6 mph - N/A   Clear
4:55 PM 70.7 °F 38.5 °F 31% 29.90 in 10.0 mi Calm Calm - N/A   Clear
5:15 PM 68.4 °F 39.4 °F 35% 29.90 in 10.0 mi Calm Calm - N/A   Clear
5:35 PM 65.3 °F 39.6 °F 39% 29.90 in 10.0 mi Calm Calm - N/A   Clear
5:55 PM 60.4 °F 40.3 °F 47% 29.91 in 10.0 mi Calm Calm - N/A   Clear
6:15 PM 60.4 °F 41.9 °F 50% 29.91 in 10.0 mi Calm Calm - N/A   Clear
6:35 PM 60.3 °F 42.3 °F 51% 29.91 in 10.0 mi Calm Calm - N/A   Clear
6:55 PM 58.1 °F 42.1 °F 55% 29.92 in 10.0 mi Calm Calm - N/A   Clear
7:15 PM 60.3 °F 44.2 °F 55% 29.91 in 10.0 mi Calm Calm - N/A   Clear
7:35 PM 61.2 °F 44.6 °F 54% 29.92 in 10.0 mi Calm Calm - N/A   Clear
7:55 PM 62.6 °F 45.1 °F 53% 29.92 in 10.0 mi Calm Calm - N/A   Clear
8:15 PM 61.3 °F 45.5 °F 56% 29.94 in 10.0 mi Calm Calm - N/A   Clear
8:35 PM 60.4 °F 45.3 °F 57% 29.95 in 10.0 mi Calm Calm - N/A   Clear
8:55 PM 58.8 °F 45.3 °F 61% 29.95 in 10.0 mi Calm Calm - N/A   Clear
9:15 PM 58.8 °F 45.5 °F 61% 29.96 in 10.0 mi Calm Calm - N/A   Mostly Cloudy
9:35 PM 59.7 °F 45.7 °F 60% 29.96 in 10.0 mi Calm Calm - N/A   Overcast
9:55 PM 55.6 °F 44.8 °F 67% 29.95 in 10.0 mi Calm Calm - N/A   Scattered Clouds
10:15 PM 54.7 °F 45.0 °F 70% 29.95 in 10.0 mi Calm Calm - N/A   Mostly Cloudy
10:35 PM 58.1 °F 47.1 °F 67% 29.96 in 10.0 mi Calm Calm - N/A   Mostly Cloudy
10:55 PM 58.8 °F 46.9 °F 65% 29.97 in 10.0 mi West 3.5 mph - N/A   Clear
11:15 PM 58.5 °F 46.4 °F 64% 29.97 in 10.0 mi West 4.6 mph - N/A   Clear
11:35 PM 57.4 °F 44.8 °F 63% 29.97 in 10.0 mi Calm Calm - N/A   Clear
11:55 PM 57.7 °F 42.1 °F 56% 29.97 in 10.0 mi NW 6.9 mph - N/A   Clear